• în România
  • Lista ţărilor
  • Pe 7 zile
  • Temperatura apei
  • Hartă satelitară
  • Meteo pe hartă
  • Widget-uri
  • user-avatar
    Intrare

    Meteo pe oră la Saurimo

    Astăzi, 23 Iunie, Vineri

    Timp Temperatura Precipitaţii Vânt Presiune Umiditate
    00:00 +17°C° 0 mm 2 m/s 671 mmHg 47%
    01:00 +16°C° 0 mm 2 m/s 671 mmHg 48%
    02:00 +16°C° 0 mm 2 m/s 671 mmHg 48%
    03:00 +16°C° 0 mm 2 m/s 671 mmHg 49%
    04:00 +14°C° 0 mm 3 m/s 671 mmHg 49%
    05:00 +16°C° 0 mm 3 m/s 672 mmHg 48%
    06:00 +16°C° 0 mm 3 m/s 672 mmHg 48%
    07:00 +17°C° 0 mm 3 m/s 672 mmHg 47%
    08:00 +20°C° 0 mm 4 m/s 673 mmHg 41%
    09:00 +23°C° 0 mm 4 m/s 673 mmHg 34%
    10:00 +27°C° 0 mm 4 m/s 674 mmHg 28%
    11:00 +28°C° 0 mm 4 m/s 673 mmHg 26%
    12:00 +29°C° 0 mm 3 m/s 673 mmHg 24%
    13:00 +31°C° 0 mm 3 m/s 673 mmHg 22%
    14:00 +30°C° 0 mm 2 m/s 672 mmHg 23%
    15:00 +30°C° 0 mm 2 m/s 672 mmHg 23%
    16:00 +30°C° 0 mm 2 m/s 671 mmHg 24%
    17:00 +27°C° 0 mm 2 m/s 671 mmHg 29%
    18:00 +24°C° 0 mm 2 m/s 671 mmHg 34%
    19:00 +20°C° 0 mm 2 m/s 671 mmHg 40%
    20:00 +19°C° 0 mm 2 m/s 671 mmHg 40%
    21:00 +18°C° 0 mm 2 m/s 671 mmHg 41%
    22:00 +18°C° 0 mm 2 m/s 671 mmHg 42%
    23:00 +17°C° 0 mm 2 m/s 671 mmHg 42%

    Mâine, 24 Iunie, Sâmbătă

    Timp Temperatura Precipitaţii Vânt Presiune Umiditate
    00:00 +17°C° 0 mm 2 m/s 671 mmHg 42%
    01:00 +16°C° 0 mm 2 m/s 671 mmHg 42%
    02:00 +16°C° 0 mm 2 m/s 671 mmHg 43%
    03:00 +15°C° 0 mm 2 m/s 670 mmHg 45%
    04:00 +14°C° 0 mm 3 m/s 670 mmHg 46%
    05:00 +14°C° 0 mm 3 m/s 671 mmHg 46%
    06:00 +16°C° 0 mm 3 m/s 671 mmHg 46%
    07:00 +16°C° 0 mm 3 m/s 672 mmHg 47%
    08:00 +19°C° 0 mm 3 m/s 672 mmHg 40%
    09:00 +23°C° 0 mm 4 m/s 673 mmHg 34%
    10:00 +27°C° 0 mm 4 m/s 674 mmHg 27%
    11:00 +29°C° 0 mm 3 m/s 673 mmHg 25%
    12:00 +30°C° 0 mm 3 m/s 673 mmHg 22%
    13:00 +32°C° 0 mm 2 m/s 672 mmHg 20%
    14:00 +32°C° 0 mm 2 m/s 672 mmHg 20%
    15:00 +31°C° 0 mm 1 m/s 671 mmHg 20%
    16:00 +31°C° 0 mm 1 m/s 671 mmHg 20%
    17:00 +28°C° 0 mm 1 m/s 671 mmHg 26%
    18:00 +24°C° 0 mm 2 m/s 670 mmHg 32%
    19:00 +20°C° 0 mm 2 m/s 670 mmHg 37%
    20:00 +19°C° 0 mm 2 m/s 670 mmHg 39%
    21:00 +19°C° 0 mm 2 m/s 670 mmHg 40%
    22:00 +18°C° 0 mm 2 m/s 671 mmHg 41%
    23:00 +18°C° 0 mm 2 m/s 670 mmHg 42%

    Poimâine, 25 Iunie, Duminică

    Timp Temperatura Precipitaţii Vânt Presiune Umiditate
    00:00 +17°C° 0 mm 2 m/s 670 mmHg 43%
    01:00 +16°C° 0 mm 2 m/s 670 mmHg 44%
    02:00 +16°C° 0 mm 2 m/s 670 mmHg 45%
    03:00 +16°C° 0 mm 2 m/s 669 mmHg 45%
    04:00 +15°C° 0 mm 2 m/s 669 mmHg 46%
    05:00 +16°C° 0 mm 2 m/s 670 mmHg 45%
    06:00 +16°C° 0 mm 3 m/s 670 mmHg 45%
    07:00 +17°C° 0 mm 3 m/s 671 mmHg 45%
    08:00 +20°C° 0 mm 3 m/s 671 mmHg 40%
    09:00 +24°C° 0 mm 3 m/s 672 mmHg 34%
    10:00 +28°C° 0 mm 3 m/s 673 mmHg 29%
    11:00 +29°C° 0 mm 3 m/s 673 mmHg 26%
    12:00 +31°C° 0 mm 2 m/s 672 mmHg 23%
    13:00 +34°C° 0 mm 2 m/s 672 mmHg 20%
    14:00 +34°C° 0 mm 2 m/s 671 mmHg 20%
    15:00 +32°C° 0 mm 2 m/s 671 mmHg 20%
    16:00 +32°C° 0 mm 1 m/s 670 mmHg 21%
    17:00 +28°C° 0 mm 1 m/s 670 mmHg 27%
    18:00 +25°C° 0 mm 1 m/s 669 mmHg 33%
    19:00 +20°C° 0 mm 2 m/s 669 mmHg 40%
    20:00 +20°C° 0 mm 2 m/s 669 mmHg 41%
    21:00 +19°C° 0 mm 2 m/s 670 mmHg 42%
    22:00 +19°C° 0 mm 2 m/s 670 mmHg 43%
    23:00 +19°C° 0 mm 2 m/s 670 mmHg 44%

    26 Iunie, Luni

    Timp Temperatura Precipitaţii Vânt Presiune Umiditate
    00:00 +18°C° 0 mm 2 m/s 670 mmHg 45%
    01:00 +18°C° 0 mm 2 m/s 669 mmHg 46%
    02:00 +17°C° 0 mm 2 m/s 669 mmHg 47%
    03:00 +17°C° 0 mm 2 m/s 669 mmHg 48%
    04:00 +17°C° 0 mm 2 m/s 669 mmHg 48%
    05:00 +17°C° 0 mm 2 m/s 670 mmHg 48%
    06:00 +17°C° 0 mm 3 m/s 670 mmHg 47%
    07:00 +18°C° 0 mm 3 m/s 671 mmHg 47%
    08:00 +21°C° 0 mm 3 m/s 671 mmHg 41%
    09:00 +25°C° 0 mm 3 m/s 672 mmHg 35%
    10:00 +29°C° 0 mm 3 m/s 673 mmHg 29%
    11:00 +30°C° 0 mm 3 m/s 672 mmHg 26%
    12:00 +33°C° 0 mm 3 m/s 672 mmHg 23%
    13:00 +34°C° 0 mm 2 m/s 671 mmHg 19%
    14:00 +34°C° 0 mm 2 m/s 671 mmHg 20%
    15:00 +34°C° 0 mm 2 m/s 671 mmHg 20%
    16:00 +32°C° 0 mm 2 m/s 670 mmHg 20%
    17:00 +29°C° 0 mm 2 m/s 670 mmHg 25%
    18:00 +26°C° 0 mm 2 m/s 670 mmHg 31%
    19:00 +21°C° 0 mm 2 m/s 670 mmHg 36%
    20:00 +21°C° 0 mm 2 m/s 670 mmHg 38%
    21:00 +20°C° 0 mm 2 m/s 670 mmHg 40%
    22:00 +19°C° 0 mm 2 m/s 671 mmHg 42%
    23:00 +19°C° 0 mm 2 m/s 671 mmHg 43%

    27 Iunie, Marţi

    Timp Temperatura Precipitaţii Vânt Presiune Umiditate
    00:00 +18°C° 0 mm 2 m/s 670 mmHg 45%
    01:00 +18°C° 0 mm 2 m/s 670 mmHg 47%
    02:00 +17°C° 0 mm 2 m/s 670 mmHg 48%
    03:00 +17°C° 0 mm 2 m/s 670 mmHg 49%
    04:00 +16°C° 0 mm 2 m/s 670 mmHg 50%
    05:00 +17°C° 0 mm 2 m/s 671 mmHg 50%
    06:00 +17°C° 0 mm 2 m/s 671 mmHg 50%
    07:00 +17°C° 0 mm 3 m/s 672 mmHg 51%
    08:00 +21°C° 0 mm 3 m/s 673 mmHg 43%
    09:00 +25°C° 0 mm 3 m/s 673 mmHg 36%
    10:00 +28°C° 0 mm 4 m/s 674 mmHg 29%
    11:00 +30°C° 0 mm 3 m/s 674 mmHg 26%
    12:00 +31°C° 0 mm 3 m/s 673 mmHg 23%
    13:00 +33°C° 0 mm 3 m/s 672 mmHg 21%
    14:00 +33°C° 0 mm 3 m/s 672 mmHg 21%
    15:00 +33°C° 0 mm 3 m/s 672 mmHg 21%
    16:00 +33°C° 0 mm 3 m/s 671 mmHg 21%
    17:00 +28°C° 0 mm 2 m/s 671 mmHg 26%
    18:00 +25°C° 0 mm 2 m/s 671 mmHg 31%
    19:00 +21°C° 0 mm 2 m/s 671 mmHg 37%
    20:00 +20°C° 0 mm 2 m/s 671 mmHg 37%
    21:00 +19°C° 0 mm 2 m/s 671 mmHg 38%
    22:00 +19°C° 0 mm 2 m/s 671 mmHg 38%
    23:00 +18°C° 0 mm 2 m/s 671 mmHg 39%

    28 Iunie, Miercuri

    Timp Temperatura Precipitaţii Vânt Presiune Umiditate
    00:00 +17°C° 0 mm 2 m/s 671 mmHg 40%
    01:00 +17°C° 0 mm 2 m/s 671 mmHg 41%
    02:00 +16°C° 0 mm 2 m/s 671 mmHg 43%
    03:00 +16°C° 0 mm 2 m/s 671 mmHg 45%
    04:00 +15°C° 0 mm 2 m/s 671 mmHg 47%
    05:00 +16°C° 0 mm 2 m/s 671 mmHg 47%
    06:00 +16°C° 0 mm 2 m/s 672 mmHg 48%
    07:00 +17°C° 0 mm 2 m/s 672 mmHg 48%
    08:00 +21°C° 0 mm 3 m/s 673 mmHg 39%
    09:00 +25°C° 0 mm 4 m/s 674 mmHg 31%
    10:00 +29°C° 0 mm 4 m/s 674 mmHg 22%
    11:00 +30°C° 0 mm 4 m/s 674 mmHg 20%
    12:00 +32°C° 0 mm 4 m/s 673 mmHg 17%
    13:00 +33°C° 0 mm 4 m/s 673 mmHg 15%
    14:00 +33°C° 0 mm 3 m/s 672 mmHg 15%
    15:00 +33°C° 0 mm 3 m/s 672 mmHg 16%
    16:00 +31°C° 0 mm 3 m/s 671 mmHg 17%
    17:00 +28°C° 0 mm 3 m/s 671 mmHg 21%
    18:00 +25°C° 0 mm 2 m/s 671 mmHg 26%
    19:00 +20°C° 0 mm 2 m/s 671 mmHg 31%
    20:00 +19°C° 0 mm 2 m/s 671 mmHg 32%
    21:00 +19°C° 0 mm 2 m/s 671 mmHg 33%
    22:00 +18°C° 0 mm 2 m/s 671 mmHg 34%
    23:00 +17°C° 0 mm 2 m/s 671 mmHg 36%
    Arată mai mult